Location: Unspecified
(0.0000°N, 0.0000°E)
Time: 09:13:40
(UTC+00:00)

STARLINK-1316 - Pass Details

Date: 14 February 2026
Orbit: 474 x 476 km, 53.2° (Epoch: 7 March)

Event Time Altitude Azimuth Distance (km) Brightness Sun altitude
Rises 18:41:10 0° 303° (WNW) 2,508 7.7 -6.6°
Reaches altitude 10° 18:43:40 10° 287° (WNW) 1,634 7.1 -7.2°
Maximum altitude 18:46:32 21° 236° (SW) 1,098 6.2 -7.9°
Drops below altitude 10° 18:49:26 10° 184° (S) 1,640 6.3 -8.6°
Sets 18:51:57 0° 168° (SSE) 2,520 7.0 -9.2°
